Create Custom Reports and Graphics: Custom Report

Siberia 8700'

Squaw Valley

5/30/20 9:30 PM (-07:00)
Updated Every 15 Minutes
Temp 34.1 °F   20.0
RH 100 %   44
Wet Bulb 34.1 °F   11.7
Dew Pt 34.1 °F   4.9
Wind Dir SSE | 153 °
Wind Spd 0.0 mph   0.0
Wind Gust 0.1 mph   0.0
WindChill 34.1 °F   19.9
Daily Min Temp 32.3 °F   19.3
Daily Max Temp 52.5 °F   17.4

Last 24 Hours

Squaw-Siberia 8700'

Hourly Data | America/Los_Angeles
as of 5/30/20 9:40 PM PDT
Date & Time Temp (°F) RH (%) Dew Pt (°F) Wet Bulb (°F) Wind Dir (°) Wind Spd (mph) Wind Gust (mph) WindChill (°F) Daily Min Temp (°F) Daily Max Temp (°F)
5/30/20 - 2100 33.8 100 33.8 33.8 SSE | 155 0.0 0.1 34.1 32.3 52.5
5/30/20 - 2000 34.0 100 34.0 34.0 SSE | 158 0.0 0.1 33.3 32.3 52.5
5/30/20 - 1900 33.1 99 32.8 33.0 SSE | 158 0.0 0.1 33.5 32.3 52.5
5/30/20 - 1800 33.4 100 33.4 33.4 SSE | 156 0.0 0.1 33.7 32.3 52.5
5/30/20 - 1700 33.2 100 33.2 33.2 SSE | 157 0.0 0.1 33.4 32.3 52.5
5/30/20 - 1600 33.0 100 33.0 33.0 SSE | 162 0.0 0.1 34.5 32.9 52.5
5/30/20 - 1500 36.5 97 35.8 36.1 SSE | 161 0.0 0.1 36.5 33.9 52.5
5/30/20 - 1400 36.4 100 36.4 36.4 SSE | 160 0.0 0.1 35.9 33.9 52.5
5/30/20 - 1300 35.6 100 35.6 35.6 SSE | 159 0.0 0.1 36.4 33.9 52.5
5/30/20 - 1200 35.2 100 35.2 35.2 SSE | 159 0.0 0.1 35.0 33.9 52.5
5/30/20 - 1100 36.0 100 36.0 36.0 SSE | 156 0.0 0.1 35.1 34.0 52.5
5/30/20 - 1000 34.9 100 34.9 34.9 SSE | 156 0.0 0.1 35.2 34.1 52.5
5/30/20 - 0900 34.6 100 34.6 34.6 SSE | 156 0.0 0.1 34.5 34.1 52.5
5/30/20 - 0800 34.2 100 34.2 34.2 SSE | 157 0.0 0.1 36.1 34.2 52.5
5/30/20 - 0700 38.3 100 38.3 38.3 SSE | 156 0.0 0.1 39.8 38.3 52.5
5/30/20 - 0600 41.9 100 41.9 41.9 SSE | 155 0.0 0.1 43.1 41.9 52.5
5/30/20 - 0500 43.4 100 43.4 43.4 SSE | 156 0.0 0.1 44.1 43.4 52.5
5/30/20 - 0400 44.9 100 44.9 44.9 SSE | 157 0.0 0.1 45.8 44.9 52.5
5/30/20 - 0300 45.9 100 45.9 45.9 SSE | 159 0.0 0.1 46.3 45.8 52.5
5/30/20 - 0200 47.7 100 47.7 47.7 SSE | 160 0.0 0.1 47.9 47.3 52.5
5/30/20 - 0100 48.2 99 48.0 48.1 SSE | 162 0.0 0.1 48.7 47.3 52.5
5/30/20 - 0000 52.1 58 37.8 44.4 SSE | 162 0.0 0.1 54.2 51.5 69.8
5/29/20 - 2300 54.9 51 37.2 45.3 SSE | 161 0.0 0.1 57.2 51.6 69.8
5/29/20 - 2200 56.8 45 35.9 45.6 N | 0 0.0 0.1 55.4 51.6 69.8
5/29/20 - 2100 56.5 50 38.0 46.3 N | 0 0.0 0.1 56.7 51.6 69.8
Max 56.8 100 48.0 48.1 - 0.0 0.1 57.2 51.6 69.8
Avg 40.6 92 37.7 39.0 - 0.0 0.1 41.1 - -
Min 33.0 45 32.8 33.0 - 0.0 0.1 33.3 32.3 52.5

Last 30 Days

Squaw-Siberia 8700'

Daily Data | America/Los_Angeles
as of 5/30/20 9:40 PM PDT
Date Daily Max Temp (°F) Max Temp Time Daily Min Temp (°F) Min Temp Time Wind Spd (mph) Daily Max Wind (mph) Max Wind Time Max Wind Dir (°) Wet Bulb (°F) WetB Hrs <28F (hrs)
5/29/20 69.8 1440 51.5 2355 3.7 17.5 0219 SW | 217 44.9 0.0
5/28/20 70.2 1555 54.5 0549 18.1 35.7 1456 SSW | 193 43.3 0.0
5/27/20 65.3 1452 51.3 0531 20.6 36.6 1706 SSW | 208 46.6 0.0
5/26/20 65.9 1419 52.1 2351 11.3 33.6 1607 WNW | 290 48.3 0.0
5/25/20 64.9 1455 44.3 0342 12.4 31.3 1705 SSW | 196 42.4 0.0
5/24/20 54.6 1836 38.0 0523 11.7 25.9 0634 E | 79 36.1 0.0
5/23/20 51.4 1553 25.9 0550 20.0 47.6 0810 ENE | 68 30.4 11.0
5/22/20 39.4 1426 28.0 2352 29.4 70.2 0302 WNW | 288 30.2 4.7
5/21/20 42.8 1633 30.3 0103 22.8 57.2 2246 WSW | 247 33.0 0.5
5/20/20 33.3 1315 26.3 0319 14.4 33.6 1013 W | 267 30.4 7.0
5/19/20 31.9 1521 23.0 0446 13.2 34.2 1829 SSW | 207 27.5 14.3
5/18/20 29.9 0001 23.8 2359 32.9 78.9 0519 S | 191 26.2 21.5
5/17/20 35.9 0337 29.8 2357 52.1 119.4 1449 S | 184 33.3 0.0
5/16/20 48.4 1437 34.4 2343 28.3 86.0 2339 W | 267 36.7 0.0
5/15/20 45.3 1607 27.0 0244 9.9 28.8 0501 SW | 224 34.6 2.7
5/14/20 32.5 1347 25.4 0737 16.2 64.8 1624 SSW | 199 29.1 8.3
5/13/20 29.7 1335 23.8 0602 11.4 22.8 0203 SW | 215 27.2 11.4
5/12/20 30.8 0350 26.2 2348 34.2 92.7 0424 SW | 225 28.8 6.7
5/11/20 42.5 1332 27.9 2333 44.9 96.0 1648 SW | 220 31.1 2.5
5/10/20 54.2 1354 39.3 2211 26.8 48.5 1436 WSW | 253 39.7 0.0
5/9/20 61.2 1400 47.3 0608 14.6 39.3 2347 SSW | 193 39.5 0.0
5/8/20 60.2 1733 45.2 0359 13.7 30.9 1500 SSW | 208 38.2 0.0
5/7/20 52.1 1826 36.9 0756 19.2 37.1 0101 ENE | 76 32.8 0.0
5/6/20 55.7 1641 35.9 0032 17.4 51.2 0216 WSW | 246 31.2 8.3
5/5/20 49.3 1438 36.0 2245 24.7 65.7 1621 SSW | 209 32.1 0.0
5/4/20 49.4 1555 31.4 0259 8.7 30.5 1546 S | 190 28.9 9.8
5/3/20 42.7 1449 29.2 0300 23.2 51.8 0037 SW | 222 30.3 1.9
5/2/20 41.1 1358 30.9 2356 34.5 68.5 1316 SSW | 192 30.9 1.4
5/1/20 48.5 1437 32.6 0547 16.6 30.7 1749 SSW | 202 33.0 0.0
4/30/20 44.0 1409 33.0 2319 30.4 61.7 1243 SSW | 209 35.2 0.0
Max 70.2 - 54.5 - 52.1 119.4 - - 48.3 21.5
Avg - - - - 21.2 - - - 34.4 -
Min 29.7 - 23.0 - 3.7 17.5 - - 26.2 0.0
Calm: 0.0%
Calm: 0.0%